Regional Weather Roundup
Issued by NWS Burlington, VT

Home | Current Version | Previous Version | Text Only | Print | Product List | Glossary On
Versions: 1 2 3 4 5 6 7 8 9 10 11 12 13 14 15 16 17 18 19 20 21 22 23 24 25 26 27 28 29 30 31 32 33 34 35 36 37 38 39 40 41 42 43 44 45 46 47 48 49 50
126
ASUS41 KBTV 280530
RWRBTV
VERMONT REGIONAL WEATHER ROUNDUP
NATIONAL WEATHER SERVICE BURLINGTON VT
100 AM EDT TUE MAR 28 2017

NOTE: "FAIR" INDICATES FEW OR NO CLOUDS BELOW 12,000 FEET WITH NO
SIGNIFICANT WEATHER AND/OR OBSTRUCTIONS TO VISIBILITY.

* THESE REPORTS ARE NOT UNDER NWS QUALITY CONTROL AND/OR DO NOT
  REPORT WEATHER SUCH AS PRECIPITATION AND FOG.

VTZ001>019-280600-
_____VERMONT_____


CITY           SKY/WX    TMP DP  RH WIND       PRES   REMARKS
BURLINGTON     CLOUDY    38  37  97 CALM      29.94S
MONTPELIER     CLOUDY    35  34  96 S5        29.99S WCI  31
MORRISVILLE    CLOUDY    33  30  88 S3        29.97R FOG
ST. JOHNSBURY*   N/A     35  34  96 MISG      29.97R
LYNDONVILLE*   CLOUDY    34  34  99 SE6       29.98R FOG     WCI  29
MIDDLEBURY*    CLOUDY    40  38  96 S3        29.95F
RUTLAND*       CLOUDY    38  34  85 E13       29.97R WCI  30
SPRINGFIELD    FOG       34  33  96 CALM      30.01F VSB 1/2
HIGHGATE*      CLOUDY    39  39  99 S3        29.92S
NEWPORT*       CLOUDY    35  33  94 S7        29.95S WCI  29
BENNINGTON     CLOUDY    39  37  92 CALM      29.97S
SUTTON*          N/A     32 N/A N/A MISG        N/A
ISLAND POND*     N/A     32 N/A N/A CALM        N/A
GALLUP MILLS*    N/A     32 N/A N/A MISG        N/A
UNION VILLAGE*   N/A     32 N/A N/A MISG        N/A
MT. MANSFIELD*   N/A     37 N/A N/A W18         N/A  WCI  27

_____LAKE CHAMPLAIN_____


CITY           SKY/WX    TMP DP  RH WIND       PRES   REMARKS

$$

NYZ007-026>031-035-052-083-087-280600-
_____NORTHERN NEW YORK_____


CITY           SKY/WX    TMP DP  RH WIND       PRES   REMARKS
PLATTSBURGH    CLOUDY    36  34  92 SE6       29.93S WCI  31
SARANAC LAKE   FOG       41  41 100 SW8       29.89R VSB 1/2
MASSENA        FOG       36  35  96 CALM      29.91F VSB 1/4
POTSDAM*       FOG       45  45 100 S3        29.89F VSB 1/4
STARK FALLS*     N/A     37 N/A N/A SE6         N/A
WATERTOWN      CLOUDY    49  47  93 S5        29.90S
FT DRUM        CLOUDY    41  41 100 SE12      29.88F
ALBANY         CLOUDY    44  40  85 S3        29.98S
GLENS FALLS    FOG       36  34  92 CALM      29.98F VSB 1/2

$$
NHZ002-005-011-280600-
_____NEW HAMPSHIRE_____


CITY           SKY/WX    TMP DP  RH WIND       PRES   REMARKS
LEBANON        CLOUDY    35  34  96 CALM      30.00R
KEENE          CLOUDY    34  34 100 CALM      30.01F FOG
MT WASHINGTON  FOG       34  34 100 W36         N/A  VSB 1/16WCI  19
PLYMOUTH       CLOUDY    33  33  99 CALM      30.02S
WHITEFIELD     CLOUDY    34  30  85 CALM      29.96F

$$

_____REGIONAL QUEBEC LOCATIONS_____


CITY           SKY/WX    TMP DP  RH WIND       PRES   REMARKS
MONTREAL       DRZL/FOG  34  34 100 NE7       29.91S VSB 1   WCI  28
QUEBEC CITY    FRZ DRZL  30  28  93 E13       29.99S FOG     WCI  20
SHERBROOKE     CLOUDY    34  34 100 E3        29.93F FOG

_____REGIONAL ONTARIO LOCATIONS_____


CITY           SKY/WX    TMP DP  RH WIND       PRES   REMARKS
OTTAWA         LGT RAIN  34  34 100 NE6       29.88F VSB 3/4 WCI  29

______KEY______
VSB  - VISIBILITY IN MILES
WCI  - WIND CHILL INDEX
HX   - HEAT INDEX
$$
NNNN




USA.gov is the U.S. government's official web portal to all federal, state and local government web resources and services.